Location: Arbon
(43.0005°N, 0.7472°E)
Time: 03:39:54
(UTC+00:00)

Cosmos 1503 Rocket - Pass Details

Date: 07 August 2020
Orbit: 753 x 790 km, 74.0° (Epoch: 27 September)

Event Time Altitude Azimuth Distance (km) Brightness Sun altitude
Exits shadow 00:56:41 55° 318° (NW) 949 4.5 -29.4°
Drops below altitude 10° 01:01:27 10° 13° (NNE) 2,362 7.5 -29.2°
Sets 01:03:54 0° 17° (NNE) 3,293 8.5 -29.0°
